Regional Weather Roundup
Issued by NWS

Home | Current Version | Previous Version | Graphics & Text | Print | Product List | Glossary On
Versions: 1 2 3 4 5 6 7 8 9 10 11 12 13 14 15 16 17 18 19 20 21 22 23 24 25 26 27 28 29 30 31 32 33 34 35 36 37 38 39 40 41 42 43 44 45 46 47 48 49 50
000
ASUS45 KPSR 282100
RWRAZ

PRELIMINARY ARIZONA REGIONAL HOURLY WEATHER ROUNDUP
NATIONAL WEATHER SERVICE PHOENIX AZ
200 PM MST SAT FEB 28 2015

NOTE: FAIR INDICATES FEW OR NO CLOUDS BELOW 12,000 FEET WITH NO
SIGNIFICANT WEATHER AND/OR OBSTRUCTIONS TO VISIBILITY.

AZZ001>003-036-282200-
NORTHWEST ARIZONA

CITY           SKY/WX    TMP DP  RH WIND       PRES   REMARKS
KINGMAN        CLOUDY    56  35  45 S21G26    29.75F
$$

AZZ004>008-015-016-018-282200-
NORTH CENTRAL ARIZONA

CITY           SKY/WX    TMP DP  RH WIND       PRES   REMARKS
GRAND CANYON   LGT RAIN  36  34  92 SW22G29   29.77S WCI  25
PRESCOTT       PTSUNNY   53  29  39 SW21G33   29.81F
FLAGSTAFF      NOT AVBL
PAYSON         LGT RAIN  45  41  87 W9G16     29.89R
PAGE           MOSUNNY   45  36  70 NW9       29.71S
$$

AZZ009>014-017-282200-
NORTHEAST ARIZONA

CITY           SKY/WX    TMP DP  RH WIND       PRES   REMARKS
WINSLOW        NOT AVBL
SAINT JOHNS    PTSUNNY   53  36  52 SW31G43   29.81R
WINDOW ROCK    CLOUDY    41  35  79 SW14G23   29.78F
SHOW LOW       MIX PCPN  39  37  93 SW29G45   29.83R WCI  28
$$

AZZ023-282200-
GREATER PHOENIX AREA

CITY           SKY/WX    TMP DP  RH WIND       PRES   REMARKS
PHOENIX        CLOUDY    67  44  43 W7        29.81F
BUCKEYE        PTSUNNY   68  45  42 SW16      29.81F
GLENDALE       PTSUNNY   68  45  42 SW12      29.83F
LUKE AFB       MOSUNNY   66  46  48 SW8       29.80F
DEER VALLEY    CLOUDY    64  44  48 S14       29.81F
SCOTTSDALE     CLOUDY    64  43  46 SW6       29.83F
MESA-FALCON    CLOUDY    63  43  48 S12       29.82F
MESA-GATEWAY   CLOUDY    66  46  48 SW12      29.85F
CHANDLER       CLOUDY    66  45  45 W12       29.83F
$$

AZZ027-028-282200-
SOUTHWEST MARICOPA COUNTY AND PINAL COUNTY

CITY           SKY/WX    TMP DP  RH WIND       PRES   REMARKS
CASA GRANDE    CLOUDY    66  43  42 SW16      29.84F
$$

AZZ503-504-507>509-282200-
SOUTHEAST ARIZONA

CITY           SKY/WX    TMP DP  RH WIND       PRES   REMARKS
TUCSON         PTSUNNY   69  43  38 W13       29.88F
DAVIS-MONTHAN  MOSUNNY   68  43  40 W14       29.86F
RYAN FIELD       N/A     72  45  37 SW22G31   29.88F
NOGALES        CLOUDY    67  41  38 SW21G32   29.92F
SIERRA VISTA   SUNNY     66  37  34 SW25G35   29.91F
SAFFORD        CLOUDY    66  38  35 N14       29.82F
$$

AZZ020-021-025-026-031-282200-
SOUTHWEST ARIZONA

CITY           SKY/WX    TMP DP  RH WIND       PRES   REMARKS
YUMA           PTSUNNY   73  45  36 W10       29.80F
$$

CAZ031-033-041-043-047-048-061-282200-
SOUTHERN CALIFORNIA

CITY           SKY/WX    TMP DP  RH WIND       PRES   REMARKS
DOWNTOWN L.A.  MOSUNNY   63  46  54 CALM      29.85F
L.A. AIRPORT   PTSUNNY   61  46  57 SW16      29.86F
SAN DIEGO      PTSUNNY   62  43  49 VRB5      29.91F
BURBANK        LGT RAIN  59  40  49 S13       29.83F
ONTARIO        PTSUNNY   60  42  51 SW13G23   29.84F
RIVERSIDE      CLOUDY    62  42  47 SW15G21   29.85F
PALM SPRINGS   MOSUNNY   67  36  31 NW15G26   29.78F
EL CENTRO NAS  MOSUNNY   72  38  29 SW28G36   29.81F
IMPERIAL       LGT RAIN  72  40  31 W29G36    29.78F
BLYTHE         MOSUNNY   73  38  27 SW23      29.77F
$$

NVZ020-UTZ003-282200-
SOUTHERN NEVADA-UTAH

CITY           SKY/WX    TMP DP  RH WIND       PRES   REMARKS
LAS VEGAS      NOT AVBL
SALT LAKE CITY CLOUDY    44  21  40 SE10      29.68F
$$

NMZ009-TXZ055-282200-
NEW MEXICO-WEST TEXAS

CITY           SKY/WX    TMP DP  RH WIND       PRES   REMARKS
ALBUQUERQUE    PTSUNNY   36  25  64 CALM      29.90F
EL PASO        MOSUNNY   60  28  29 VRB7      29.91F
$$


........................KEY........................
SKY/WX - SKY CONDITION/WEATHER
TMP    - TEMPERATURE IN FAHRENHEIT
DP     - DEW POINT IN FAHRENHEIT
RH     - RELATIVE HUMIDITY IN PERCENT
WIND   - DIRECTION AND SPEED IN MILES PER HOUR (MPH)
VRB    - VARIABLE WIND DIRECTION
PRES   - MEAN SEA LEVEL PRESSURE IN INCHES OF MERCURY
         F - FALLING PRESSURE   R - RISING PRESSURE
         S - STEADY PRESSURE
VSB    - VISIBILITY IN MILES
HX     - HEAT INDEX IN FAHRENHEIT
WCI    - WIND CHILL INDEX IN FAHRENHEIT
TC     - TEMPERATURE IN CELSIUS WHICH IS ALSO KNOWN AS
         TEMPERATURE IN CENTIGRADE
AFB    - AIR FORCE BASE
         LUKE AFB IS LUKE AIR FORCE BASE
         DAVIS-MONTHAN IS DAVIS-MONTHAN AIR FORCE BASE
NAS    - NAVAL AIR STATION
         EL CENTRO NAS IS EL CENTRO NAVAL AIR STATION
N/A    - NOT AVAILABLE


USA.gov is the U.S. government's official web portal to all federal, state and local government web resources and services.